Tracking 30142 objects as of 21-Jan-2025
HD Live streaming from Space Station
objects crossing your sky now

YUNHAI 2 4

Track YUNHAI 2 4 now!
10-day predictions


NORAD ID: 43912
Int'l Code: 2018-112D
Perigee: 792.1 km
Apogee: 815.0 km
Inclination: 50.0 °
Period: 100.8 minutes
Semi major axis: 7174 km
RCS: Unknown
Launch date: December 29, 2018
Source: People's Republic of China (PRC)
Launch site: Jiuquan Satellite Launch Center, China (JSC)
Your satellite tracking list
Your tracking list is empty




NASA's NSSDC Master Catalog

Two Line Element Set (TLE):
1 43912U 18112D   25021.53197011  .00000486  00000-0  25588-3 0  9998
2 43912  50.0125 298.8223 0015958 349.5458  10.5123 14.28612187314420
Source of the keplerian elements: AFSPC